1497268800.04,21027,22.13,74134.3,22.87,-13.79,-12.21,0,*48
1497268801.3,21028,22.13,74132.0,22.89,-13.37,-11.59,0,*4F
1497268802.54,21029,22.13,74134.0,22.95,-14.15,-12.47,0,*48
1497268803.82,21030,22.13,74134.0,22.95,-13.33,-11.63,0,*46
1497268805.1,21031,22.13,74134.5,22.99,-13.61,-12.11,0,*4A
1497268806.36,21032,22.13,74134.0,23.01,-13.97,-12.35,0,*46
1497268807.61,21033,22.13,74130.5,23.03,-12.75,-11.19,0,*45
1497268808.87,21034,22.13,74134.5,23.05,-12.35,-10.79,0,*47
1497268810.07,21035,22.13,74134.0,23.09,-12.97,-11.45,0,*4C
1497268811.32,21036,22.13,74138.5,23.11,-12.93,-11.37,0,*47
1497268812.58,21037,22.13,74136.0,23.17,-13.55,-11.97,0,*41
1497268813.85,21038,22.13,74134.3,23.15,-14.97,-13.61,0,*4E
1497268815.12,21039,22.13,74134.5,23.17,-13.87,-12.15,0,*49
1497268816.36,21040,22.13,74132.3,23.17,-13.07,-11.45,0,*49
1497268817.61,21041,22.13,74128.8,23.21,-13.15,-11.55,0,*4F
1497268818.84,21042,22.13,74128.0,23.23,-12.53,-10.85,0,*41
1497268820.08,21043,22.13,74128.8,23.25,-12.29,-10.53,0,*40
1497268821.33,21044,22.13,74128.8,23.29,-11.73,-9.93,0,*73
1497268822.58,21045,22.13,74130.0,23.33,-11.81,-10.15,0,*42
1497268823.86,21046,22.13,74130.5,23.37,-13.29,-11.77,0,*40
1497268825.09,21047,22.13,74134.5,23.39,-12.65,-11.01,0,*47
1497268826.32,21048,22.13,74134.5,23.39,-13.65,-11.89,0,*49
1497268827.55,21049,22.13,74134.3,23.43,-12.79,-11.11,0,*48
1497268828.77,21050,22.13,74134.8,23.43,-13.07,-11.37,0,*4C
1497268830.02,21051,22.13,74138.5,23.45,-12.61,-10.93,0,*45
1497268831.29,21052,22.13,74140.3,23.45,-14.79,-13.29,0,*4B
1497268832.55,21053,22.13,74140.8,23.45,-18.35,-16.79,0,*4E
1497268833.79,21054,22.13,74142.5,23.43,-17.79,-16.23,0,*47
1497268835.03,21055,22.13,74136.5,23.41,-17.35,-15.49,0,*43
1497268836.26,21056,22.13,74134.8,23.41,-17.31,-15.49,0,*44
1497268837.49,21057,22.13,74138.3,23.37,-17.69,-16.03,0,*44
1497268838.76,21058,22.13,74136.0,23.37,-17.45,-15.63,0,*40
1497268839.98,21059,22.13,74134.8,23.31,-17.79,-15.67,0,*4C
1497268841.22,21060,22.13,74138.3,23.31,-17.25,-15.63,0,*4B
1497268842.47,21061,22.13,74138.5,23.27,-17.55,-15.89,0,*4E
1497268843.7,21062,22.13,74142.3,23.27,-18.73,-17.21,0,*46
1497268844.93,21063,22.13,74138.3,23.23,-19.71,-17.93,0,*49
1497268846.12,21064,22.13,74140.3,23.19,-20.05,-18.25,0,*4C
1497268847.38,21065,22.19,74140.0,23.17,-19.03,-17.21,0,*44
1497268848.66,21066,22.13,74140.8,23.15,-18.31,-16.51,0,*43
1497268849.91,21067,22.13,74140.3,23.15,-18.79,-17.25,0,*4C
1497268851.14,21068,22.13,74140.0,23.09,-18.79,-17.07,0,*4E
1497268852.38,21069,22.13,74138.5,23.09,-18.69,-17.03,0,*4A
1497268853.58,21070,22.13,74146.5,23.05,-18.73,-16.97,0,*49
1497268854.79,21071,22.13,74148.5,23.05,-20.29,-18.59,0,*40
1497268856.05,21072,22.13,74144.8,23.01,-19.27,-17.59,0,*4C
1497268857.3,21073,22.13,74140.0,23.01,-19.27,-17.35,0,*47
1497268858.53,21074,22.13,74142.3,22.97,-19.85,-18.07,0,*48
1497268859.72,21075,22.13,74136.5,22.93,-19.99,-18.25,0,*40
1497268860.96,21076,22.13,74130.0,22.93,-19.61,-17.87,0,*43
1497268862.22,21077,22.19,74132.3,22.89,-19.65,-17.79,0,*4C
1497268863.48,21078,22.13,74130.0,22.87,-17.97,-16.03,0,*42
1497268864.71,21079,22.13,74130.5,22.87,-18.65,-16.83,0,*49
1497268865.97,21080,22.13,74124.0,22.85,-20.15,-18.31,0,*46
1497268867.2,21081,22.13,74126.3,22.83,-22.21,-20.63,0,*48
1497268868.46,21082,22.13,74118.3,22.75,-23.49,-21.87,0,*46
1497268869.66,21083,22.13,74116.3,22.67,-25.35,-23.59,0,*48
1497268870.86,21084,22.13,74122.8,22.63,-26.07,-24.47,0,*41
1497268872.12,21085,22.13,74120.5,22.57,-25.03,-23.43,0,*43
1497268873.37,21086,22.13,74120.3,22.49,-25.55,-23.79,0,*45
1497268874.63,21087,22.13,74122.3,22.43,-23.99,-22.21,0,*44
1497268875.92,21088,22.13,74124.5,22.37,-24.71,-23.03,0,*48
1497268877.12,21089,22.13,74124.0,22.31,-24.57,-22.87,0,*46
1497268878.38,21090,22.13,74124.8,22.29,-25.45,-23.65,0,*48
1497268879.61,21091,22.13,74126.5,22.19,-25.87,-24.05,0,*45
1497268880.8,21092,22.13,74122.8,22.13,-25.19,-23.43,0,*4E
1497268882.01,21093,22.13,74130.8,22.09,-25.49,-23.75,0,*44
1497268883.2,21094,22.13,74124.5,22.05,-23.39,-21.43,0,*49
1497268884.49,21095,22.13,74124.3,22.03,-23.03,-20.99,0,*41
1497268885.72,21096,22.13,74126.0,21.99,-22.11,-19.99,0,*4A
1497268886.92,21097,22.13,74126.5,21.97,-20.39,-18.21,0,*4F
1497268888.18,21098,22.19,74130.5,21.95,-19.95,-17.97,0,*4C
1497268889.38,21099,22.13,74130.3,21.97,-20.69,-18.83,0,*4C
1497268890.62,21100,22.13,74120.5,21.95,-22.07,-20.35,0,*43
1497268891.89,21101,22.13,74126.3,21.95,-24.83,-22.93,0,*46
1497268893.12,21102,22.13,74124.8,21.87,-23.89,-21.97,0,*4C
1497268894.34,21103,22.13,74124.0,21.83,-21.97,-20.09,0,*42
1497268895.57,21104,22.13,74124.8,21.83,-20.83,-18.69,0,*4C
1497268896.79,21105,22.19,74130.5,21.81,-24.93,-22.87,0,*43
1497268897.99,21106,22.13,74124.3,21.75,-22.83,-20.69,0,*4E
1497268899.21,21107,22.13,74128.0,21.71,-20.69,-18.59,0,*45
1497268900.43,21108,22.13,74128.5,21.71,-22.41,-20.43,0,*42
1497268901.66,21109,22.13,74130.5,21.69,-21.73,-19.71,0,*43
1497268902.86,21110,22.13,74126.8,21.67,-21.77,-19.91,0,*4F
1497268904.11,21111,22.13,74126.8,21.65,-22.87,-21.03,0,*40
1497268905.38,21112,22.13,74126.3,21.63,-23.19,-21.03,0,*43
1497268906.64,21113,22.13,74124.5,21.61,-23.89,-21.83,0,*41
1497268907.87,21114,22.13,74134.8,21.53,-22.77,-20.69,0,*42
1497268909.11,21115,22.13,74132.5,21.51,-22.63,-20.59,0,*47
1497268910.34,21116,22.13,74134.0,21.49,-23.99,-21.73,0,*40
1497268911.62,21117,22.13,74136.0,21.47,-20.19,-18.01,0,*4B
1497268912.82,21118,22.13,74130.5,21.45,-20.05,-17.69,0,*4A
1497268914.06,21119,22.13,74122.0,21.47,-19.91,-17.73,0,*45
1497268915.29,21120,22.19,74118.0,21.45,-21.97,-19.75,0,*48
1497268916.51,21121,22.19,74120.5,21.45,-19.13,-16.79,0,*4D
1497268917.75,21122,22.13,74122.8,21.45,-21.63,-19.61,0,*44
1497268918.99,21123,22.13,74120.3,21.43,-20.39,-18.11,0,*4B
1497268920.2,21124,22.13,74132.8,21.45,-19.03,-16.79,0,*49
1497268921.43,21125,22.19,74132.3,21.43,-20.25,-18.11,0,*40
1497268922.73,21126,22.13,74130.3,21.43,-21.67,-19.57,0,*47
1497268923.99,21127,22.19,74130.8,21.39,-23.03,-20.63,0,*46
1497268925.22,21128,22.13,74122.8,21.37,-21.27,-18.83,0,*46
1497268926.51,21129,22.13,74120.3,21.39,-20.19,-17.97,0,*4F
1497268927.77,21130,22.19,74120.5,21.39,-18.65,-16.13,0,*4A
1497268929.04,21131,22.13,74124.0,21.35,-19.47,-17.07,0,*42
1497268930.27,21132,22.13,74128.0,21.37,-19.91,-17.63,0,*4A
1497268931.51,21133,22.13,74122.8,21.37,-23.03,-20.73,0,*4C
1497268932.77,21134,22.13,74118.5,21.31,-21.03,-18.73,0,*44
1497268934.01,21135,22.13,74112.0,21.31,-21.63,-19.37,0,*42
1497268935.22,21136,22.13,74116.5,21.29,-20.43,-18.07,0,*49
1497268936.43,21137,22.19,74118.3,21.29,-20.59,-18.21,0,*47
1497268937.67,21138,22.13,74118.5,21.29,-19.71,-17.25,0,*43
1497268938.9,21139,22.13,74118.5,21.29,-18.01,-15.63,0,*44
1497268940.17,21140,22.13,74122.0,21.29,-18.31,-15.85,0,*41
1497268941.4,21141,22.13,74124.0,21.29,-17.79,-15.25,0,*49
1497268942.7,21142,22.13,74128.0,21.31,-17.97,-15.57,0,*46
1497268943.96,21143,22.13,74130.5,21.35,-17.83,-15.43,0,*43
1497268945.19,21144,22.13,74130.8,21.37,-17.21,-14.69,0,*47
1497268946.43,21145,22.19,74134.5,21.37,-15.75,-13.29,0,*46
1497268947.66,21146,22.19,74130.5,21.41,-15.35,-12.93,0,*40
1497268948.9,21147,22.19,74130.3,21.45,-15.25,-12.79,0,*40
1497268950.16,21148,22.13,74128.0,21.47,-15.11,-12.61,0,*43
1497268951.39,21149,22.13,74130.8,21.49,-15.07,-12.61,0,*4B
1497268952.64,21150,22.13,74132.8,21.51,-14.93,-12.29,0,*4A
1497268953.9,21151,22.19,74134.0,21.57,-14.23,-11.77,0,*4E
1497268955.14,21152,22.13,74130.5,21.59,-14.79,-12.25,0,*48
1497268956.37,21153,22.13,74134.0,21.63,-15.29,-12.61,0,*44
1497268957.59,21154,22.19,74132.3,21.67,-14.69,-11.97,0,*48
1497268958.85,21155,22.19,74132.8,21.69,-14.29,-11.77,0,*4D
1497268960.07,21156,22.13,74132.5,21.71,-14.97,-12.25,0,*46
1497268961.32,21157,22.19,74134.5,21.75,-14.43,-11.73,0,*4A
1497268962.55,21158,22.19,74134.8,21.75,-15.15,-12.57,0,*42
1497268963.8,21159,22.19,74132.8,21.81,-16.09,-13.47,0,*46
1497268965.03,21160,22.13,74134.8,21.83,-17.25,-14.69,0,*4A
1497268966.25,21161,22.19,74136.0,21.81,-16.79,-14.19,0,*46
1497268967.51,21162,22.13,74134.5,21.83,-14.55,-11.89,0,*47
1497268968.77,21163,22.19,74138.5,21.85,-15.53,-12.79,0,*4B
1497268970.02,21164,22.13,74132.5,21.85,-15.85,-13.23,0,*49
1497268971.3,21165,22.19,74134.5,21.85,-17.63,-14.97,0,*4A
1497268972.5,21166,22.19,74134.5,21.87,-16.89,-14.15,0,*44
1497268973.71,21167,22.19,74136.3,21.87,-15.95,-13.19,0,*40
1497268974.97,21168,22.19,74136.8,21.89,-16.23,-13.61,0,*40
1497268976.16,21169,22.13,74128.5,21.87,-20.05,-17.49,0,*40
1497268977.42,21170,22.19,74138.5,21.87,-19.31,-16.69,0,*46
1497268978.65,21171,22.13,74132.3,21.85,-18.83,-16.03,0,*41
1497268979.88,21172,22.13,74132.8,21.85,-18.21,-15.71,0,*4C
1497268981.11,21173,22.13,74134.3,21.83,-19.65,-16.89,0,*4E
1497268982.36,21174,22.19,74138.0,21.81,-16.75,-13.87,0,*4E
1497268983.61,21175,22.13,74134.0,21.81,-16.23,-13.69,0,*4C
1497268984.83,21176,22.19,74136.8,21.83,-16.51,-13.73,0,*43
1497268986.03,21177,22.13,74132.8,21.83,-16.89,-14.15,0,*40
1497268987.26,21178,22.19,74136.5,21.85,-16.75,-14.19,0,*46
1497268988.52,21179,22.19,74134.3,21.85,-15.81,-12.97,0,*4F
1497268989.76,21180,22.19,74134.8,21.89,-15.21,-12.53,0,*47
1497268991.0,21181,22.13,74132.5,21.89,-14.37,-11.67,0,*44
1497268992.23,21182,22.19,74136.3,21.93,-15.89,-13.15,0,*4F
1497268993.45,21183,22.13,74134.3,21.93,-14.69,-11.93,0,*4D
1497268994.68,21184,22.19,74136.0,21.95,-15.11,-12.39,0,*41
1497268995.93,21185,22.19,74136.5,21.97,-16.27,-13.61,0,*48
1497268997.18,21186,22.19,74138.3,21.97,-15.35,-12.53,0,*4B
1497268998.41,21187,22.19,74134.5,21.99,-15.15,-12.43,0,*47
1497268999.64,21188,22.13,74134.5,22.05,-14.89,-12.15,0,*49
1497269000.86,21189,22.19,74136.0,22.05,-13.87,-11.19,0,*4E
1497269002.11,21190,22.13,74136.3,22.07,-14.69,-12.07,0,*4F
1497269003.33,21191,22.19,74138.0,22.09,-15.63,-13.01,0,*4C
1497269004.56,21192,22.13,74132.5,22.09,-15.75,-13.01,0,*48
1497269005.85,21193,22.19,74132.0,22.11,-15.43,-12.71,0,*43
1497269007.13,21194,22.19,74136.3,22.11,-16.09,-13.33,0,*4E
1497269008.41,21195,22.13,74134.3,22.11,-15.57,-12.75,0,*44
1497269009.66,21196,22.19,74134.5,22.15,-15.71,-13.29,0,*4F
1497269010.9,21197,22.19,74134.0,22.13,-14.97,-12.15,0,*4F
1497269012.16,21198,22.19,74138.8,22.15,-14.37,-11.63,0,*4E
1497269013.39,21199,22.19,74136.3,22.15,-15.07,-12.25,0,*4C
1497269014.64,21200,22.19,74136.3,22.19,-15.29,-12.71,0,*4E
1497269015.92,21201,22.19,74138.0,22.19,-17.55,-14.79,0,*48
1497269017.17,21202,22.19,74136.0,22.17,-18.89,-16.09,0,*4E
1497269018.42,21203,22.19,74134.8,22.17,-16.69,-13.87,0,*4C
1497269019.65,21204,22.19,74136.8,22.15,-18.69,-15.99,0,*4E
1497269020.88,21205,22.19,74134.0,22.15,-18.17,-15.25,0,*41
1497269022.12,21206,22.19,74132.3,22.13,-17.97,-15.29,0,*4F
1497269023.37,21207,22.19,74128.3,22.13,-18.59,-15.85,0,*45
1497269024.63,21208,22.19,74130.8,22.11,-19.95,-17.07,0,*41
1497269025.84,21209,22.19,74124.8,22.09,-18.49,-15.75,0,*4E
1497269027.06,21210,22.19,74124.5,22.05,-21.67,-18.83,0,*48
1497269028.34,21211,22.13,74118.5,21.99,-21.97,-19.31,0,*48
1497269029.59,21212,22.19,74124.3,21.95,-20.99,-18.25,0,*4C
1497269030.83,21213,22.19,74128.0,21.91,-19.51,-16.59,0,*42
1497269032.09,21214,22.19,74128.0,21.91,-19.17,-16.31,0,*49
1497269033.35,21215,22.19,74126.5,21.91,-18.73,-15.89,0,*4B
1497269034.59,21216,22.13,74126.3,21.91,-18.25,-15.29,0,*41
1497269035.8,21217,22.19,74126.0,21.89,-18.07,-15.11,0,*42
1497269037.06,21218,22.19,74126.5,21.87,-19.27,-16.17,0,*45
1497269038.27,21219,22.19,74126.8,21.89,-17.87,-15.07,0,*4C
1497269039.48,21220,22.19,74124.8,21.89,-18.83,-15.95,0,*46
1497269040.71,21221,22.19,74126.8,21.85,-20.63,-17.73,0,*44
1497269041.92,21222,22.19,74128.3,21.83,-20.93,-17.83,0,*41
1497269043.15,21223,22.19,74130.5,21.83,-19.47,-16.65,0,*4A
1497269044.42,21224,22.19,74128.5,21.73,-20.15,-17.07,0,*4A
1497269045.66,21225,22.19,74128.0,21.73,-19.95,-16.79,0,*41
1497269046.92,21226,22.19,74132.5,21.73,-18.55,-15.49,0,*4F
1497269048.2,21227,22.19,74128.3,21.73,-19.31,-16.17,0,*45
1497269049.45,21228,22.19,74128.5,21.73,-20.25,-17.11,0,*42
1497269050.73,21229,22.19,74128.0,21.69,-20.35,-17.17,0,*4F
1497269051.98,21230,22.19,74128.0,21.65,-19.47,-16.31,0,*41
1497269053.23,21231,22.19,74130.0,21.65,-19.81,-16.59,0,*44
1497269054.46,21232,22.13,74128.0,21.65,-18.73,-15.63,0,*41
1497269055.67,21233,22.19,74130.5,21.63,-18.21,-14.89,0,*44
1497269056.88,21234,22.19,74128.3,21.63,-17.69,-14.29,0,*4A
1497269058.15,21235,22.19,74128.0,21.65,-17.93,-14.75,0,*41
1497269059.38,21236,22.19,74130.5,21.65,-18.11,-14.89,0,*44
1497269060.63,21237,22.19,74130.3,21.65,-17.03,-13.69,0,*40
1497269061.89,21238,22.19,74130.5,21.65,-16.27,-12.97,0,*48
1497269063.14,21239,22.19,74128.8,21.65,-18.07,-14.75,0,*4F
1497269064.4,21240,22.19,74128.8,21.65,-19.17,-15.85,0,*4F
1497269065.63,21241,22.19,74132.5,21.65,-18.25,-14.89,0,*43
1497269066.92,21242,22.19,74132.8,21.65,-17.41,-13.97,0,*45
1497269068.16,21243,22.19,74134.0,21.65,-17.79,-14.29,0,*4D
1497269069.44,21244,22.19,74130.5,21.65,-17.79,-13.97,0,*48
1497269070.65,21245,22.19,74132.3,21.67,-16.75,-13.23,0,*49
1497269071.88,21246,22.19,74134.0,21.65,-16.37,-12.89,0,*4F
1497269073.12,21247,22.19,74132.3,21.65,-15.99,-12.57,0,*4A
1497269074.35,21248,22.19,74134.8,21.67,-15.81,-12.25,0,*4B
1497269075.59,21249,22.19,74132.0,21.71,-14.55,-10.93,0,*4A
1497269076.8,21250,22.19,74134.0,21.71,-14.29,-10.49,0,*4E
1497269078.04,21251,22.19,74134.5,21.73,-14.15,-10.57,0,*4D
1497269079.26,21252,22.19,74130.5,21.81,-13.43,-9.67,0,*7C
1497269080.54,21253,22.19,74132.3,21.81,-12.75,-9.11,0,*78
1497269081.73,21254,22.19,74132.0,21.87,-12.29,-8.67,0,*70
1497269082.96,21255,22.13,74130.5,21.89,-12.61,-9.01,0,*72
1497269084.18,21256,22.19,74134.8,21.97,-12.25,-8.51,0,*7A
1497269085.37,21257,22.19,74132.3,21.97,-12.39,-8.63,0,*77
1497269086.64,21258,22.19,74132.8,22.03,-12.15,-8.51,0,*79
1497269087.86,21259,22.19,74132.8,22.07,-13.11,-9.31,0,*7E
1497269089.09,21260,22.13,74128.0,22.11,-13.55,-9.79,0,*7F
1497269090.34,21261,22.19,74126.3,22.11,-17.11,-13.43,0,*48
1497269091.56,21262,22.19,74130.3,22.09,-17.73,-14.01,0,*47
1497269092.82,21263,22.19,74126.8,22.09,-19.23,-15.35,0,*4B
1497269094.04,21264,22.19,74124.0,22.05,-18.55,-14.69,0,*48
1497269095.27,21265,22.19,74120.3,22.05,-17.03,-13.11,0,*4D
1497269096.5,21266,22.19,74128.8,22.03,-15.25,-11.19,0,*44
1497269097.73,21267,22.19,74124.5,22.05,-15.71,-11.67,0,*4B
1497269098.98,21268,22.19,74130.5,22.07,-18.69,-14.93,0,*4C
1497269100.22,21269,22.19,74132.3,21.99,-19.07,-15.07,0,*4C
1497269101.48,21270,22.19,74132.5,21.99,-17.41,-13.55,0,*49
1497269102.71,21271,22.19,74134.0,21.99,-18.25,-14.33,0,*42
1497269103.99,21272,22.19,74136.5,21.95,-16.69,-12.53,0,*4B
1497269105.22,21273,22.19,74134.0,21.95,-18.73,-14.69,0,*40
1497269106.48,21274,22.19,74132.0,21.95,-18.83,-14.55,0,*47
1497269107.69,21275,22.19,74130.3,21.93,-18.73,-14.65,0,*4C
1497269108.94,21276,22.19,74132.0,21.91,-20.59,-16.51,0,*4B
1497269110.17,21277,22.19,74134.0,21.85,-22.83,-18.79,0,*4E
1497269111.4,21278,22.19,74134.0,21.81,-21.63,-17.35,0,*4F
1497269112.6,21279,22.19,74134.0,21.75,-20.25,-15.95,0,*4E
1497269113.87,21280,22.19,74132.0,21.73,-20.83,-16.51,0,*49
1497269115.1,21281,22.19,74132.3,21.69,-20.29,-15.95,0,*48
1497269116.38,21282,22.19,74134.0,21.69,-18.93,-14.75,0,*4E
1497269117.66,21283,22.19,74134.0,21.65,-20.15,-15.81,0,*4C
1497269118.94,21284,22.19,74132.0,21.65,-19.65,-15.35,0,*49
1497269120.18,21285,22.19,74134.0,21.63,-19.23,-14.89,0,*4A
1497269121.42,21286,22.19,74134.3,21.59,-19.75,-15.39,0,*49
1497269122.65,21287,22.19,74132.8,21.57,-19.07,-14.69,0,*47
1497269123.94,21288,22.19,74134.3,21.57,-19.31,-14.93,0,*48
1497269125.15,21289,22.19,74128.3,21.59,-18.79,-14.33,0,*40
1497269126.38,21290,22.19,74128.3,21.57,-18.21,-13.93,0,*46
1497269127.62,21291,22.19,74130.5,21.57,-17.35,-12.93,0,*4C
1497269128.84,21292,22.19,74128.0,21.53,-19.03,-14.43,0,*4B
1497269130.1,21293,22.19,74128.8,21.53,-16.27,-11.67,0,*40
1497269131.34,21294,22.19,74126.5,21.53,-14.51,-10.01,0,*45
1497269132.58,21295,22.19,74124.5,21.59,-15.85,-11.15,0,*42
1497269133.79,21296,22.19,74124.0,21.59,-14.19,-9.71,0,*7E
1497269135.02,21297,22.19,74130.5,21.63,-14.55,-9.97,0,*76
1497269136.27,21298,22.19,74128.0,21.65,-15.01,-10.15,0,*4D
1497269137.5,21299,22.19,74130.5,21.67,-14.23,-9.61,0,*74
1497269138.71,21300,22.19,74128.8,21.71,-14.33,-9.97,0,*7A
1497269139.95,21301,22.19,74126.0,21.71,-14.15,-9.53,0,*77
1497269141.18,21302,22.19,74128.0,21.71,-14.23,-9.61,0,*70
1497269142.37,21303,22.19,74126.0,21.75,-13.11,-8.41,0,*70
1497269143.62,21304,22.19,74124.5,21.81,-13.29,-8.55,0,*72
1497269144.83,21305,22.19,74126.5,21.85,-13.55,-8.75,0,*7E
1497269146.08,21306,22.19,74130.8,21.85,-13.97,-9.23,0,*71
1497269147.32,21307,22.19,74126.3,21.89,-14.37,-9.53,0,*76
1497269148.52,21308,22.19,74128.0,21.89,-14.15,-9.23,0,*7E
1497269149.76,21309,22.19,74128.0,21.87,-14.15,-9.37,0,*74
1497269151.01,21310,22.19,74126.5,21.93,-16.17,-11.33,0,*44
1497269152.23,21311,22.19,74128.8,21.91,-14.69,-9.71,0,*73
1497269153.45,21312,22.19,74128.5,21.91,-13.55,-8.59,0,*73
1497269154.64,21313,22.19,74130.0,21.93,-13.65,-8.71,0,*79
1497269155.92,21314,22.19,74130.0,21.95,-14.55,-9.49,0,*76
1497269157.14,21315,22.19,74130.5,21.95,-14.69,-9.75,0,*77
1497269158.36,21316,22.19,74128.3,21.97,-13.97,-8.67,0,*72
1497269159.61,21317,22.19,74128.0,21.97,-13.37,-8.51,0,*7C
1497269160.83,21318,22.19,74132.8,21.99,-13.73,-8.97,0,*77
1497269162.11,21319,22.19,74132.0,22.03,-14.55,-9.49,0,*77
1497269163.36,21320,22.19,74134.5,22.03,-14.75,-9.75,0,*70
1497269164.6,21321,22.19,74132.0,22.05,-13.79,-8.81,0,*76
1497269165.81,21322,22.19,74132.0,22.07,-13.47,-8.55,0,*73
1497269167.05,21323,22.19,74134.8,22.07,-13.79,-8.67,0,*7E
1497269168.27,21324,22.19,74130.3,22.07,-13.23,-8.21,0,*74
1497269169.53,21325,22.19,74128.8,22.11,-11.37,-6.31,0,*7A
1497269170.75,21326,22.19,74132.3,22.15,-11.15,-6.01,0,*7E
1497269172.02,21327,22.19,74130.8,22.15,-11.97,-6.93,0,*7E
1497269173.26,21328,22.19,74132.8,22.19,-11.37,-6.35,0,*7B
1497269174.5,21329,22.19,74132.5,22.25,-11.73,-6.69,0,*7C
1497269175.77,21330,22.19,74132.8,22.29,-12.07,-6.97,0,*79
1497269177.01,21331,22.19,74132.3,22.29,-11.89,-6.85,0,*7E
1497269178.24,21332,22.19,74136.0,22.31,-12.11,-6.81,0,*72
1497269179.52,21333,22.19,74132.3,22.33,-12.75,-7.61,0,*7C
1497269180.74,21334,22.19,74134.0,22.35,-13.83,-8.55,0,*7D
1497269181.97,21335,22.19,74132.3,22.35,-12.53,-7.15,0,*7B
1497269183.21,21336,22.19,74134.8,22.37,-12.07,-6.73,0,*7A
1497269184.49,21337,22.19,74136.8,22.41,-11.29,-5.93,0,*78
1497269185.74,21338,22.19,74136.0,22.41,-12.47,-6.93,0,*7F
1497269187.0,21339,22.19,74132.8,22.47,-11.63,-6.19,0,*7F
1497269188.23,21340,22.19,74138.3,22.47,-11.93,-6.51,0,*72
1497269189.44,21341,22.19,74132.8,22.51,-11.51,-6.05,0,*7B
1497269190.67,21342,22.19,74138.8,22.51,-12.71,-7.23,0,*7C
1497269191.95,21343,22.19,74134.0,22.53,-12.53,-6.93,0,*75
1497269193.17,21344,22.19,74138.8,22.55,-12.79,-7.19,0,*7F
1497269194.39,21345,22.19,74138.8,22.55,-11.67,-6.09,0,*72
1497269195.6,21346,22.19,74136.0,22.59,-11.15,-5.55,0,*72
1497269196.85,21347,22.19,74138.8,22.63,-10.79,-5.23,0,*70
1497269198.08,21348,22.19,74142.0,22.65,-10.23,-4.57,0,*74
1497269199.27,21349,22.19,74142.0,22.67,-9.79,-4.13,0,*40
1497269200.52,21350,22.19,74140.0,22.73,-9.53,-3.91,0,*48
1497269201.79,21351,22.19,74138.8,22.77,-10.63,-4.93,0,*73
1497269203.04,21352,22.19,74142.3,22.77,-12.15,-6.35,0,*7D
1497269204.29,21353,22.19,74140.8,22.81,-13.01,-7.11,0,*76
1497269205.54,21354,22.19,74140.8,22.79,-12.15,-6.23,0,*72
1497269206.8,21355,22.19,74142.5,22.81,-11.73,-5.65,0,*76
1497269208.04,21356,22.19,74142.3,22.85,-10.67,-4.65,0,*74
1497269209.27,21357,22.19,74138.8,22.85,-10.85,-4.89,0,*7B
1497269210.5,21358,22.19,74142.0,22.89,-10.19,-4.01,0,*7D
1497269211.75,21359,22.19,74140.3,22.95,-10.63,-4.65,0,*7E
1497269213.02,21360,22.19,74144.0,22.95,-11.33,-5.27,0,*77
1497269214.25,21361,22.19,74140.3,22.97,-11.11,-4.89,0,*71
1497269215.44,21362,22.19,74142.5,23.01,-9.31,-3.19,0,*49
1497269216.68,21363,22.19,74140.3,23.03,-10.41,-4.29,0,*71
1497269217.91,21364,22.19,74142.3,23.05,-10.67,-4.41,0,*7A
1497269219.16,21365,22.19,74144.5,23.07,-9.37,-3.07,0,*41
1497269220.37,21366,22.19,74140.3,23.11,-9.19,-2.87,0,*40
1497269221.62,21367,22.19,74140.8,23.15,-9.83,-3.55,0,*48
1497269222.88,21368,22.19,74142.0,23.19,-9.11,-2.67,0,*40
1497269224.13,21369,22.19,74144.5,23.21,-9.37,-3.15,0,*4A
1497269225.36,21370,22.19,74142.5,23.25,-9.57,-3.31,0,*46
1497269226.55,21371,22.19,74146.5,23.27,-10.31,-3.95,0,*73
1497269227.81,21372,22.19,74142.3,23.29,-11.41,-4.85,0,*7E
1497269229.1,21373,22.19,74144.3,23.29,-11.85,-5.11,0,*7B
1497269230.33,21374,22.19,74144.8,23.31,-12.25,-5.85,0,*71
1497269231.59,21375,22.19,74142.8,23.31,-11.55,-4.89,0,*79
1497269232.84,21376,22.19,74142.5,23.31,-12.79,-6.27,0,*71
1497269234.04,21377,22.19,74144.0,23.31,-13.23,-6.51,0,*7F
1497269235.28,21378,22.19,74146.0,23.31,-11.29,-4.65,0,*7D
1497269236.51,21379,22.19,74142.3,23.31,-11.41,-4.81,0,*78
1497269237.79,21380,22.19,74142.3,23.33,-12.35,-5.69,0,*7B
1497269239.01,21381,22.19,74140.5,23.33,-11.23,-4.57,0,*72
1497269240.26,21382,22.19,74140.3,23.33,-11.41,-4.77,0,*77
1497269241.55,21383,22.19,74142.8,23.33,-11.93,-5.31,0,*7A
1497269242.82,21384,22.19,74144.8,23.33,-11.97,-5.31,0,*79
1497269244.06,21385,22.19,74140.5,23.37,-11.01,-4.29,0,*7B
1497269245.28,21386,22.19,74142.3,23.39,-12.75,-6.13,0,*7D
1497269246.49,21387,22.19,74140.8,23.39,-10.49,-3.67,0,*77
1497269247.75,21388,22.19,74142.0,23.39,-12.53,-6.19,0,*7D
1497269248.97,21389,22.19,74140.3,23.39,-13.15,-6.27,0,*72
1497269250.19,21390,22.19,74142.5,23.37,-13.47,-6.55,0,*76
1497269251.4,21391,22.19,74142.5,23.39,-13.23,-6.31,0,*79
1497269252.63,21392,22.19,74138.5,23.37,-11.23,-4.37,0,*72
1497269253.88,21393,22.19,74140.5,23.37,-10.75,-3.95,0,*7E
1497269255.08,21394,22.19,74142.8,23.39,-10.89,-4.21,0,*7C
1497269256.31,21395,22.19,74138.8,23.39,-12.89,-5.89,0,*7C
1497269257.58,21396,22.19,74138.8,23.41,-11.77,-4.77,0,*72
1497269258.8,21397,22.19,74142.8,23.41,-10.01,-3.11,0,*74
1497269260.02,21398,22.19,74140.0,23.43,-10.71,-3.91,0,*76
1497269261.22,21399,22.19,74138.8,23.43,-10.97,-4.17,0,*76
1497269262.43,21400,22.19,74136.5,23.47,-10.23,-3.43,0,*7C
1497269263.63,21401,22.19,74140.8,23.47,-10.19,-3.31,0,*71
1497269264.86,21402,22.19,74138.0,23.51,-10.53,-3.63,0,*7C
1497269266.11,21403,22.19,74136.8,23.51,-9.31,-2.51,0,*41
1497269267.33,21404,22.19,74136.8,23.51,-8.67,-1.79,0,*4D
1497269268.55,21405,22.19,74136.5,23.61,-8.89,-2.11,0,*42
1497269269.79,21406,22.19,74142.8,23.61,-9.61,-2.75,0,*44
1497269271.0,21407,22.19,74138.8,23.61,-10.27,-3.51,0,*78
1497269272.22,21408,22.19,74140.5,23.61,-10.31,-3.51,0,*70
1497269273.47,21409,22.19,74138.0,23.63,-10.67,-3.79,0,*7A
1497269274.65,21410,22.19,74136.8,23.65,-10.05,-3.19,0,*76
1497269275.9,21411,22.19,74136.5,23.65,-9.41,-2.67,0,*47
1497269277.11,21412,22.19,74136.3,23.69,-10.45,-3.51,0,*70
1497269278.31,21413,22.19,74134.8,23.69,-9.75,-2.87,0,*40
1497269279.53,21414,22.19,74138.5,23.71,-9.19,-2.39,0,*41
1497269280.77,21415,22.19,74136.5,23.73,-9.41,-2.59,0,*49
1497269281.98,21416,22.19,74138.3,23.75,-9.67,-2.83,0,*4F
1497269283.22,21417,22.19,74138.0,23.77,-9.49,-2.63,0,*4E
1497269284.45,21418,22.19,74136.0,23.77,-8.85,-2.03,0,*46
1497269285.67,21419,22.19,74136.5,23.77,-9.11,-2.39,0,*42
1497269286.88,21420,22.19,74138.0,23.79,-9.75,-3.11,0,*4F
1497269288.1,21421,22.19,74136.8,23.83,-10.41,-3.83,0,*7F
1497269289.32,21422,22.19,74138.0,23.83,-11.51,-4.99,0,*70
1497269290.6,21423,22.19,74136.3,23.79,-11.77,-5.07,0,*76
1497269291.84,21424,22.19,74138.5,23.79,-11.07,-4.17,0,*76
1497269293.05,21425,22.19,74138.5,23.77,-9.61,-3.07,0,*46
1497269294.26,21426,22.19,74140.8,23.77,-9.61,-3.03,0,*41
1497269295.5,21427,22.19,74138.8,23.79,-9.61,-2.99,0,*4C
1497269296.72,21428,22.19,74138.3,23.83,-8.55,-1.91,0,*4B
1497269297.95,21429,22.19,74138.8,23.83,-9.01,-2.47,0,*42